Location: Abundant Grace Fellowship
(35.0349°N, 90.0924°W)
Time: 23:17:42
(UTC+00:00)

BREEZE-M DEB (TANK) - Pass Details

Date: 18 January 2026
Orbit: 320 x 13114 km, 49.6° (Epoch: 10 February)

Event Time Altitude Azimuth Distance (km) Brightness Sun altitude
Exits shadow 10:51:15 57° 238° (WSW) 1,281 4.3 -27.5°
Maximum altitude 10:52:43 86° 322° (NW) 1,322 4.5 -27.2°
Drops below altitude 10° 11:11:18 10° 53° (NE) 7,913 9.2 -23.4°
Sets 11:22:50 0° 55° (NE) 11,324 10.1 -21.1°
